This is the latest recevied weather packets stored in our database for station/object W1TG-2. If no packets are shown the sender has not sent any weather packets the latest 10 day(s).
| Time | Temp. | Humidity | Pressure | Rain* | Wind** | Luminosity | Snow |
|---|---|---|---|---|---|---|---|
| 1788040084 | 21.67° C | 67% | 1019.8 hPa | 0 mm | - | - | - |
| 1788039723 | 21.67° C | 66% | 1019.7 hPa | 0 mm | - | - | - |
| 1788039363 | 22.22° C | 66% | 1019.6 hPa | 0 mm | - | - | - |
| 1788039004 | 22.22° C | 67% | 1019.7 hPa | 0 mm | - | - | - |
| 1788038643 | 22.22° C | 68% | 1019.7 hPa | 0 mm | - | - | - |
| 1788038284 | 22.22° C | 69% | 1019.7 hPa | 0 mm | - | - | - |
| 1788037924 | 22.22° C | 68% | 1019.9 hPa | 0 mm | - | - | - |
| 1788037563 | 22.22° C | 67% | 1019.7 hPa | 0 mm | - | - | - |
| 1788037204 | 21.67° C | 66% | 1019.8 hPa | 0 mm | - | - | - |
| 1788036843 | 21.67° C | 68% | 1019.9 hPa | 0 mm | - | - | - |
| 1788036483 | 21.67° C | 67% | 1020 hPa | 0 mm | - | - | - |
| 1788036124 | 22.22° C | 67% | 1020.1 hPa | 0 mm | - | - | - |
| 1788035763 | 21.67° C | 68% | 1020.1 hPa | 0 mm | - | - | - |
| 1788035404 | 21.11° C | 66% | 1020.1 hPa | 0 mm | - | - | - |
| 1788035043 | 21.11° C | 65% | 1020.1 hPa | 0 mm | - | - | - |
| 1788034683 | 21.67° C | 64% | 1020.1 hPa | 0 mm | - | - | - |
| 1788034324 | 21.67° C | 64% | 1020.1 hPa | 0 mm | - | - | - |
| 1788033964 | 21.67° C | 64% | 1020.1 hPa | 0 mm | - | - | - |
| 1788033603 | 21.67° C | 64% | 1020.3 hPa | 0 mm | - | - | - |
| 1788033244 | 21.67° C | 65% | 1020.3 hPa | 0 mm | - | - | - |
| 1788032883 | 21.67° C | 64% | 1020.3 hPa | 0 mm | - | - | - |
| 1788032523 | 21.67° C | 62% | 1020.4 hPa | 0 mm | - | - | - |
| 1788032164 | 21.67° C | 63% | 1020.3 hPa | 0 mm | - | - | - |
| 1788031803 | 21.67° C | 62% | 1020.4 hPa | 0 mm | - | - | - |
| 1788031443 | 22.22° C | 59% | 1020.4 hPa | 0 mm | - | - | - |
* Rain latest hour (hover to see other rain measurements)
** Current wind speed in m/s (hover to see current wind gust speed)